Location: Buisson
(44.2787°N, 4.9969°E)
Time: 06:48:51
(UTC+00:00)

CZ-2D R/B - Pass Details

Date: 18 April 2021
Orbit: 552 x 638 km, 97.9° (Epoch: 06 May)

Event Time Altitude Azimuth Distance (km) Brightness Sun altitude
Rises 03:00:46 0° 14° (NNE) 2,786 7.7 -18.5°
Reaches altitude 10° 03:02:54 10° 16° (NNE) 1,895 6.8 -18.2°
Maximum altitude 03:07:01 78° 102° (ESE) 605 3.5 -17.6°
Enters shadow 03:09:36 23° 187° (S) 1,288 4.8 -17.2°
